Powrót do katalogu

FENGYUN 1C DEB

AktywnyPO
NORAD 30999·DEBRIS·🇨🇳 China

Wystrzelony May 10, 1999 z Taiyuan Satellite Launch Center

Loading…

Następne Przeloty (najbliższe 24 godziny)

TLE

ŚwieżeSource: Space-Track

Epoka: Sep 14, 2026, 07:37 UTC

1 30999U 99025BCR 26257.31801084  .00001613  00000-0  32167-3 0  9995
2 30999  99.0889 102.3009 0109430 220.5805 138.7198 14.59915306 28368

Śledź FENGYUN 1C DEB w czasie rzeczywistym z AllMySat

Download on the App Store